Simultaneous Nadir Overpasses (SNOs) Predictions

Prediction of SNOs between GOES-16 and METOP-C Satellite Orbit:

Table of predicted SNOs for the next 14.0 days since TLE Epoch: 1/14/2024
Index Date Time (GOES-16) GOES-16 Lat,Lon METOP-C Lat,Lon Distance(km) Time Diff (sec)
1 01/14/2024 14:27:31 -0.01, -75.23 -0.08, -74.83 45.66 80
2 01/16/2024 02:49:11 -0.00, -75.22 -0.95, -79.42 479.01 80
3 01/17/2024 02:25:52 0.00, -75.23 0.17, -74.43 91.21 80
4 01/18/2024 14:47:23 0.00, -75.27 0.83, -78.99 423.52 80
5 01/19/2024 14:24:03 -0.01, -75.28 -0.30, -74.00 147.01 80
6 01/21/2024 02:45:44 0.01, -75.28 -0.73, -78.59 376.98 80
7 01/22/2024 02:22:24 0.01, -75.29 0.40, -73.60 193.69 80
8 01/23/2024 14:43:54 -0.02, -75.34 0.63, -78.15 320.36 80
9 01/24/2024 14:23:15 -0.02, -75.36 -0.51, -73.16 250.89 80
10 01/26/2024 02:42:15 0.01, -75.37 -0.51, -77.75 271.51 80
11 01/27/2024 02:18:55 0.00, -75.39 0.57, -72.75 300.59 80
